Location: Bégole
(43.1574°N, 0.3291°E)
Time: 12:06:34
(UTC+00:00)

Cosmos 2322 Rocket - Pass Details

Date: 28 January 2023
Orbit: 832 x 851 km, 71.0° (Epoch: 20 March)

Event Time Altitude Azimuth Distance (km) Brightness Sun altitude
Rises 19:43:10 0° 208° (SSW) 3,364 5.7 -28.8°
Reaches altitude 10° 19:45:36 10° 210° (SSW) 2,433 4.9 -29.3°
Enters shadow 19:50:38 68° 251° (WSW) 894 2.3 -30.2°
